QPF
0.00 0.00 0.00 0.00 0.00 0.00 0.00 0.00 0.00 0.00 0.00 0.00 0.00 0.00 0.00 0.00 0.00 0.00 0.00 0.00 0.00 0.00 0.00 0.00 0.00 0.00 0.00 0.00 0.00 0.00 0.00 0.00 0.01 0.01 0.01 0.01 0.01 0.00 0.00 0.00 0.00 0.00 0.00 0.00 0.00 0.00 0.00 0.00 0.01
0.00 0.00 0.00 0.00 0.00 0.00 0.00 0.00 0.00 0.00 0.00 0.00 0.00 0.00 0.00 0.00 0.00 0.00 0.00 0.00 0.00 0.00 0.00 0.00 0.00 0.00 0.00 0.00 0.00 0.00 0.00 0.00 0.01 0.01 0.01 0.01 0.00 0.00 0.00 0.00 0.00 0.00 0.00 0.00 0.00 0.00 0.00 0.00 0.00
0.00 0.00 0.00 0.00 0.00 0.00 0.00 0.00 0.00 0.00 0.00 0.00 0.00 0.00 0.00 0.00 0.00 0.00 0.00 0.00 0.00 0.00 0.00 0.00 0.00 0.00 0.00 0.00 0.00 0.00 0.00 0.00 0.01 0.01 0.00 0.01 0.00 0.00 0.00 0.00 0.00 0.00 0.00 0.00 0.00 0.00 0.00 0.00 0.00
0.00 0.00 0.00 0.00 0.00 0.00 0.00 0.00 0.00 0.00 0.00 0.00 0.00 0.00 0.00 0.00 0.00 0.00 0.00 0.00 0.00 0.00 0.00 0.00 0.00 0.00 0.00 0.00 0.00 0.00 0.00 0.00 0.01 0.00 0.00 0.00 0.00 0.00 0.00 0.00 0.00 0.00 0.00 0.00 0.00 0.00 0.00 0.00 0.00
0.00 0.00 0.00 0.00 0.00 0.00 0.00 0.00 0.00 0.00 0.00 0.00 0.00 0.00 0.00 0.00 0.00 0.00 0.00 0.00 0.00 0.00 0.00 0.00 0.00 0.00 0.00 0.00 0.00 0.00 0.00 0.00 0.01 0.00 0.00 0.01 0.00 0.00 0.00 0.00 0.00 0.00 0.00 0.00 0.00 0.00 0.00 0.00 0.00
0.00 0.00 0.00 0.00 0.00 0.00 0.00 0.00 0.00 0.00 0.00 0.00 0.00 0.00 0.00 0.00 0.00 0.00 0.00 0.00 0.00 0.00 0.00 0.00 0.00 0.00 0.00 0.00 0.01 0.00 0.00 0.00 0.01 0.00 0.01 0.01 0.00 0.00 0.00 0.00 0.00 0.00 0.00 0.00 0.00 0.00 0.00 0.00 0.00
0.00 0.00 0.00 0.00 0.00 0.00 0.00 0.00 0.00 0.00 0.00 0.00 0.00 0.00 0.00 0.00 0.00 0.00 0.00 0.00 0.00 0.00 0.00 0.00 0.00 0.00 0.00 0.01 0.01 0.01 0.01 0.00 0.00 0.01 0.01 0.01 0.01 0.00 0.00 0.00 0.00 0.00 0.00 0.00 0.00 0.00 0.00 0.00 0.00
0.00 0.00 0.00 0.00 0.00 0.00 0.00 0.00 0.00 0.00 0.00 0.00 0.00 0.00 0.00 0.00 0.00 0.00 0.00 0.00 0.00 0.00 0.00 0.00 0.00 0.00 0.00 0.00 0.01 0.01 0.01 0.01 0.00 0.01 0.01 0.01 0.01 0.00 0.00 0.00 0.00 0.00 0.00 0.00 0.00 0.00 0.00 0.00 0.00
0.00 0.00 0.00 0.00 0.00 0.00 0.00 0.00 0.00 0.00 0.00 0.00 0.00 0.00 0.00 0.00 0.00 0.00 0.00 0.00 0.00 0.00 0.00 0.00 0.00 0.00 0.00 0.00 0.00 0.01 0.01 0.01 0.01 0.01 0.01 0.00 0.00 0.00 0.00 0.00 0.00 0.00 0.00 0.00 0.00 0.00 0.00 0.00 0.00
0.00 0.00 0.00 0.00 0.00 0.00 0.00 0.00 0.00 0.00 0.00 0.00 0.00 0.00 0.00 0.00 0.00 0.00 0.00 0.00 0.00 0.00 0.00 0.00 0.00 0.00 0.00 0.00 0.00 0.00 0.01 0.01 0.01 0.00 0.00 0.00 0.00 0.00 0.00 0.00 0.00 0.00 0.00 0.00 0.00 0.00 0.00 0.00 0.00
0.00 0.00 0.00 0.00 0.00 0.00 0.00 0.00 0.00 0.00 0.00 0.00 0.00 0.00 0.00 0.00 0.00 0.00 0.00 0.00 0.00 0.00 0.00 0.00 0.00 0.00 0.00 0.00 0.00 0.00 0.00 0.00 0.00 0.00 0.00 0.00 0.00 0.00 0.00 0.00 0.00 0.00 0.00 0.00 0.00 0.00 0.00 0.00 0.00
0.00 0.00 0.00 0.00 0.00 0.00 0.00 0.00 0.00 0.00 0.00 0.00 0.00 0.00 0.00 0.00 0.00 0.00 0.00 0.00 0.00 0.00 0.00 0.00 0.00 0.00 0.00 0.00 0.00 0.00 0.00 0.00 0.00 0.00 0.00 0.00 0.00 0.00 0.00 0.00 0.00 0.00 0.00 0.00 0.00 0.00 0.00 0.00 0.00
0.00 0.00 0.00 0.00 0.00 0.00 0.00 0.00 0.00 0.00 0.00 0.00 0.00 0.00 0.00 0.00 0.00 0.00 0.00 0.00 0.00 0.00 0.00 0.00 0.00 0.00 0.00 0.00 0.00 0.00 0.00 0.00 0.00 0.00 0.00 0.00 0.00 0.00 0.00 0.00 0.00 0.00 0.00 0.00 0.00 0.00 0.00 0.00 0.00
0.00 0.00 0.00 0.00 0.00 0.00 0.00 0.00 0.00 0.00 0.00 0.00 0.00 0.00 0.00 0.00 0.00 0.00 0.00 0.00 0.00 0.00 0.00 0.00 0.00 0.00 0.00 0.00 0.00 0.00 0.00 0.00 0.00 0.00 0.00 0.00 0.00 0.00 0.00 0.00 0.00 0.00 0.00 0.00 0.00 0.00 0.00 0.00 0.00
0.00 0.00 0.00 0.00 0.00 0.00 0.00 0.00 0.00 0.00 0.00 0.00 0.00 0.00 0.00 0.00 0.00 0.00 0.00 0.00 0.00 0.00 0.00 0.00 0.00 0.00 0.00 0.00 0.00 0.00 0.00 0.00 0.00 0.00 0.00 0.00 0.00 0.00 0.00 0.00 0.00 0.00 0.00 0.00 0.00 0.00 0.00 0.00 0.00
0.00 0.00 0.00 0.00 0.00 0.00 0.00 0.00 0.00 0.00 0.00 0.00 0.00 0.00 0.00 0.00 0.00 0.00 0.00 0.00 0.00 0.00 0.00 0.00 0.00 0.00 0.00 0.00 0.00 0.00 0.00 0.00 0.00 0.00 0.00 0.00 0.00 0.00 0.00 0.00 0.00 0.00 0.00 0.00 0.00 0.00 0.00 0.00 0.00
0.00 0.00 0.00 0.00 0.00 0.00 0.00 0.00 0.00 0.00 0.00 0.00 0.00 0.00 0.00 0.00 0.00 0.00 0.00 0.00 0.00 0.00 0.00 0.00 0.00 0.00 0.00 0.00 0.00 0.00 0.00 0.00 0.00 0.00 0.00 0.00 0.00 0.00 0.00 0.00 0.00 0.00 0.00 0.00 0.00 0.00 0.00 0.00 0.00
0.00 0.00 0.00 0.00 0.00 0.00 0.00 0.00 0.00 0.00 0.00 0.00 0.00 0.00 0.00 0.00 0.00 0.00 0.00 0.00 0.00 0.00 0.00 0.00 0.00 0.00 0.00 0.00 0.00 0.00 0.00 0.00 0.00 0.00 0.00 0.00 0.00 0.00 0.00 0.00 0.00 0.00 0.00 0.00 0.00 0.00 0.00 0.00 0.00
0.00 0.00 0.00 0.00 0.00 0.00 0.00 0.00 0.00 0.00 0.00 0.00 0.00 0.00 0.00 0.00 0.00 0.00 0.00 0.00 0.00 0.00 0.00 0.00 0.00 0.00 0.00 0.00 0.00 0.00 0.00 0.00 0.00 0.00 0.00 0.00 0.00 0.00 0.00 0.00 0.00 0.00 0.00 0.00 0.00 0.00 0.00 0.00 0.00
0.00 0.00 0.00 0.00 0.00 0.00 0.00 0.00 0.00 0.00 0.00 0.00 0.00 0.00 0.00 0.00 0.00 0.00 0.00 0.00 0.00 0.00 0.00 0.00 0.00 0.00 0.00 0.00 0.00 0.00 0.00 0.00 0.00 0.00 0.00 0.00 0.00 0.00 0.00 0.00 0.00 0.00 0.00 0.00 0.00 0.00 0.00 0.00 0.00
0.00 0.00 0.00 0.00 0.00 0.00 0.00 0.00 0.00 0.00 0.00 0.00 0.00 0.00 0.00 0.00 0.00 0.00 0.00 0.00 0.00 0.00 0.00 0.00 0.00 0.00 0.00 0.00 0.00 0.00 0.00 0.00 0.00 0.00 0.00 0.00 0.00 0.00 0.00 0.00 0.00 0.00 0.00 0.00 0.00 0.00 0.00 0.00 0.00
0.00 0.00 0.00 0.00 0.00 0.00 0.00 0.00 0.00 0.00 0.00 0.00 0.00 0.00 0.00 0.00 0.00 0.00 0.00 0.00 0.00 0.00 0.00 0.00 0.00 0.00 0.00 0.00 0.00 0.00 0.00 0.00 0.00 0.00 0.00 0.00 0.00 0.00 0.00 0.00 0.00 0.00 0.00 0.00 0.00 0.00 0.00 0.00 0.00
0.00 0.00 0.00 0.00 0.00 0.00 0.00 0.00 0.00 0.00 0.00 0.00 0.00 0.00 0.00 0.00 0.00 0.00 0.00 0.00 0.00 0.00 0.00 0.00 0.00 0.00 0.00 0.00 0.00 0.00 0.00 0.00 0.00 0.00 0.00 0.00 0.00 0.00 0.00 0.00 0.00 0.00 0.00 0.00 0.00 0.00 0.00 0.00 0.00
0.00 0.00 0.00 0.00 0.00 0.00 0.00 0.00 0.00 0.00 0.00 0.00 0.00 0.00 0.00 0.00 0.00 0.00 0.00 0.00 0.00 0.00 0.00 0.00 0.00 0.00 0.00 0.00 0.00 0.00 0.00 0.00 0.00 0.00 0.00 0.00 0.00 0.00 0.00 0.00 0.00 0.00 0.00 0.00 0.00 0.00 0.00 0.00 0.00
0.00 0.00 0.00 0.00 0.00 0.00 0.00 0.00 0.00 0.00 0.00 0.00 0.00 0.00 0.00 0.00 0.00 0.00 0.00 0.00 0.00 0.00 0.00 0.00 0.00 0.00 0.00 0.00 0.00 0.00 0.00 0.00 0.00 0.00 0.00 0.00 0.00 0.00 0.00 0.00 0.00 0.00 0.00 0.00 0.00 0.00 0.00 0.00 0.00
0.00 0.00 0.00 0.00 0.00 0.00 0.00 0.00 0.00 0.00 0.00 0.00 0.00 0.00 0.00 0.00 0.00 0.00 0.00 0.00 0.00 0.00 0.00 0.00 0.00 0.00 0.00 0.00 0.00 0.00 0.00 0.00 0.00 0.00 0.00 0.00 0.00 0.00 0.00 0.00 0.00 0.00 0.00 0.00 0.00 0.00 0.00 0.00 0.00
0.00 0.00 0.00 0.00 0.00 0.00 0.00 0.00 0.00 0.00 0.00 0.00 0.00 0.00 0.00 0.00 0.00 0.00 0.00 0.00 0.00 0.00 0.00 0.00 0.00 0.00 0.00 0.00 0.00 0.00 0.00 0.00 0.00 0.00 0.00 0.00 0.00 0.00 0.00 0.00 0.00 0.00 0.00 0.00 0.00 0.00 0.00 0.00 0.00
0.00 0.00 0.00 0.00 0.00 0.00 0.00 0.00 0.00 0.00 0.00 0.00 0.00 0.00 0.00 0.00 0.00 0.00 0.00 0.00 0.00 0.00 0.00 0.00 0.00 0.00 0.00 0.00 0.00 0.00 0.00 0.00 0.00 0.00 0.00 0.00 0.00 0.00 0.00 0.00 0.00 0.00 0.00 0.00 0.00 0.00 0.00 0.00 0.00
0.00 0.00 0.00 0.00 0.00 0.00 0.00 0.00 0.00 0.00 0.00 0.00 0.00 0.00 0.00 0.00 0.00 0.00 0.00 0.00 0.00 0.00 0.00 0.00 0.00 0.00 0.00 0.00 0.00 0.00 0.00 0.00 0.00 0.00 0.00 0.00 0.00 0.00 0.00 0.00 0.00 0.00 0.00 0.00 0.00 0.00 0.00 0.00 0.00
0.00 0.00 0.00 0.00 0.00 0.00 0.00 0.00 0.00 0.00 0.00 0.00 0.00 0.00 0.00 0.00 0.00 0.00 0.00 0.00 0.00 0.00 0.00 0.00 0.00 0.00 0.00 0.00 0.00 0.00 0.00 0.00 0.00 0.00 0.00 0.00 0.00 0.00 0.00 0.00 0.00 0.00 0.00 0.00 0.00 0.00 0.00 0.00 0.00
MSLP
1013.44 1014.02 1014.70 1015.39 1015.97 1016.36 1016.53 1016.47 1016.23 1015.90 1015.57 1015.31 1015.19 1015.20 1015.33 1015.53 1015.74 1015.91 1016.03 1016.10 1016.16 1016.27 1016.48 1016.80 1017.26 1017.81 1018.39 1018.95 1019.43 1019.80 1020.07 1020.26 1020.42 1020.58 1020.79 1021.05 1021.35 1021.66 1021.94 1022.16 1022.29 1022.36 1022.36 1022.33 1022.29 1022.27 1022.28 1022.29 1022.29
1013.62 1014.30 1015.02 1015.68 1016.18 1016.45 1016.46 1016.25 1015.87 1015.44 1015.04 1014.75 1014.62 1014.65 1014.81 1015.02 1015.24 1015.42 1015.55 1015.64 1015.74 1015.91 1016.18 1016.59 1017.13 1017.75 1018.39 1019.00 1019.52 1019.92 1020.22 1020.45 1020.63 1020.83 1021.07 1021.35 1021.66 1021.96 1022.23 1022.43 1022.55 1022.61 1022.62 1022.61 1022.60 1022.61 1022.63 1022.66 1022.66
1013.85 1014.56 1015.27 1015.85 1016.23 1016.36 1016.22 1015.88 1015.40 1014.91 1014.49 1014.21 1014.11 1014.17 1014.35 1014.58 1014.81 1015.00 1015.14 1015.26 1015.41 1015.64 1015.98 1016.47 1017.07 1017.75 1018.43 1019.06 1019.59 1020.01 1020.33 1020.57 1020.79 1021.02 1021.28 1021.57 1021.87 1022.16 1022.40 1022.58 1022.68 1022.73 1022.75 1022.77 1022.79 1022.84 1022.89 1022.94 1022.96
1014.13 1014.82 1015.45 1015.92 1016.16 1016.14 1015.88 1015.44 1014.92 1014.42 1014.03 1013.80 1013.76 1013.86 1014.06 1014.30 1014.53 1014.71 1014.86 1015.00 1015.19 1015.47 1015.89 1016.43 1017.09 1017.79 1018.49 1019.12 1019.64 1020.05 1020.37 1020.62 1020.85 1021.10 1021.38 1021.67 1021.97 1022.25 1022.47 1022.62 1022.71 1022.76 1022.80 1022.85 1022.92 1023.01 1023.11 1023.19 1023.23
1014.43 1015.06 1015.58 1015.91 1016.00 1015.86 1015.51 1015.03 1014.52 1014.07 1013.75 1013.61 1013.62 1013.77 1013.99 1014.22 1014.42 1014.58 1014.71 1014.86 1015.08 1015.41 1015.87 1016.47 1017.15 1017.87 1018.55 1019.16 1019.65 1020.04 1020.33 1020.58 1020.83 1021.09 1021.38 1021.69 1021.98 1022.25 1022.46 1022.60 1022.69 1022.75 1022.82 1022.90 1023.02 1023.16 1023.30 1023.42 1023.48
1014.73 1015.26 1015.65 1015.84 1015.81 1015.57 1015.18 1014.71 1014.26 1013.90 1013.69 1013.64 1013.73 1013.90 1014.12 1014.32 1014.47 1014.59 1014.69 1014.83 1015.06 1015.42 1015.91 1016.53 1017.23 1017.94 1018.60 1019.16 1019.61 1019.96 1020.23 1020.48 1020.72 1021.00 1021.31 1021.63 1021.94 1022.21 1022.42 1022.57 1022.66 1022.75 1022.84 1022.96 1023.12 1023.30 1023.48 1023.62 1023.70
1015.00 1015.42 1015.68 1015.74 1015.61 1015.32 1014.93 1014.52 1014.17 1013.93 1013.83 1013.87 1014.01 1014.21 1014.39 1014.53 1014.62 1014.67 1014.72 1014.84 1015.07 1015.44 1015.96 1016.59 1017.29 1017.97 1018.60 1019.12 1019.53 1019.84 1020.09 1020.33 1020.58 1020.88 1021.21 1021.56 1021.89 1022.17 1022.39 1022.54 1022.66 1022.76 1022.87 1023.01 1023.20 1023.40 1023.60 1023.76 1023.85
1015.19 1015.51 1015.65 1015.62 1015.43 1015.13 1014.78 1014.45 1014.20 1014.09 1014.10 1014.21 1014.39 1014.57 1014.70 1014.77 1014.78 1014.75 1014.75 1014.84 1015.06 1015.43 1015.96 1016.60 1017.29 1017.96 1018.55 1019.04 1019.41 1019.70 1019.93 1020.17 1020.45 1020.77 1021.13 1021.50 1021.85 1022.15 1022.38 1022.55 1022.67 1022.77 1022.89 1023.04 1023.23 1023.44 1023.64 1023.79 1023.89
1015.30 1015.52 1015.59 1015.49 1015.28 1014.99 1014.70 1014.46 1014.33 1014.31 1014.40 1014.57 1014.75 1014.89 1014.97 1014.95 1014.88 1014.78 1014.73 1014.79 1015.00 1015.38 1015.91 1016.55 1017.23 1017.88 1018.45 1018.91 1019.27 1019.55 1019.79 1020.04 1020.34 1020.69 1021.08 1021.47 1021.84 1022.15 1022.39 1022.55 1022.66 1022.76 1022.86 1023.00 1023.17 1023.36 1023.54 1023.68 1023.77
1015.32 1015.48 1015.48 1015.36 1015.14 1014.90 1014.67 1014.52 1014.47 1014.53 1014.67 1014.85 1015.01 1015.10 1015.11 1015.03 1014.88 1014.73 1014.65 1014.69 1014.89 1015.27 1015.80 1016.43 1017.10 1017.74 1018.30 1018.76 1019.11 1019.40 1019.66 1019.94 1020.26 1020.64 1021.05 1021.46 1021.84 1022.15 1022.37 1022.52 1022.62 1022.69 1022.76 1022.86 1022.99 1023.14 1023.29 1023.41 1023.48
1015.30 1015.41 1015.37 1015.24 1015.04 1014.84 1014.67 1014.59 1014.60 1014.69 1014.85 1015.01 1015.13 1015.17 1015.13 1014.99 1014.80 1014.63 1014.53 1014.56 1014.76 1015.14 1015.66 1016.28 1016.94 1017.57 1018.12 1018.58 1018.95 1019.26 1019.54 1019.85 1020.20 1020.59 1021.01 1021.42 1021.80 1022.09 1022.30 1022.43 1022.49 1022.53 1022.56 1022.62 1022.70 1022.81 1022.91 1023.01 1023.06
1015.27 1015.34 1015.29 1015.15 1014.97 1014.81 1014.69 1014.64 1014.68 1014.78 1014.92 1015.05 1015.13 1015.13 1015.04 1014.88 1014.69 1014.51 1014.42 1014.46 1014.66 1015.03 1015.54 1016.14 1016.77 1017.38 1017.93 1018.39 1018.78 1019.12 1019.43 1019.77 1020.13 1020.53 1020.94 1021.34 1021.69 1021.96 1022.15 1022.25 1022.29 1022.29 1022.29 1022.30 1022.34 1022.40 1022.47 1022.53 1022.57
1015.29 1015.32 1015.24 1015.11 1014.96 1014.82 1014.72 1014.69 1014.73 1014.81 1014.91 1015.00 1015.05 1015.03 1014.93 1014.78 1014.61 1014.46 1014.40 1014.45 1014.65 1015.00 1015.48 1016.04 1016.64 1017.22 1017.75 1018.22 1018.62 1018.98 1019.32 1019.66 1020.03 1020.41 1020.80 1021.17 1021.49 1021.74 1021.90 1021.99 1022.01 1021.99 1021.97 1021.96 1021.96 1021.99 1022.03 1022.06 1022.08
1015.39 1015.37 1015.27 1015.13 1014.99 1014.87 1014.78 1014.75 1014.76 1014.81 1014.88 1014.94 1014.97 1014.94 1014.87 1014.76 1014.64 1014.54 1014.51 1014.58 1014.77 1015.09 1015.52 1016.02 1016.57 1017.11 1017.62 1018.08 1018.49 1018.86 1019.20 1019.54 1019.89 1020.25 1020.60 1020.93 1021.21 1021.43 1021.58 1021.66 1021.69 1021.68 1021.66 1021.64 1021.64 1021.65 1021.67 1021.68 1021.67
1015.55 1015.48 1015.36 1015.22 1015.08 1014.96 1014.87 1014.83 1014.81 1014.83 1014.87 1014.91 1014.94 1014.95 1014.93 1014.88 1014.83 1014.79 1014.80 1014.88 1015.05 1015.32 1015.68 1016.11 1016.59 1017.09 1017.56 1018.01 1018.41 1018.78 1019.11 1019.43 1019.75 1020.05 1020.36 1020.64 1020.88 1021.08 1021.23 1021.33 1021.38 1021.40 1021.41 1021.41 1021.41 1021.42 1021.43 1021.42 1021.39
1015.74 1015.64 1015.50 1015.36 1015.22 1015.10 1015.01 1014.94 1014.90 1014.89 1014.91 1014.95 1015.01 1015.06 1015.11 1015.15 1015.18 1015.21 1015.25 1015.33 1015.47 1015.68 1015.96 1016.31 1016.72 1017.16 1017.60 1018.02 1018.41 1018.76 1019.08 1019.36 1019.63 1019.88 1020.11 1020.34 1020.55 1020.73 1020.89 1021.01 1021.10 1021.17 1021.22 1021.26 1021.29 1021.32 1021.32 1021.29 1021.23
1015.92 1015.80 1015.66 1015.53 1015.40 1015.28 1015.17 1015.09 1015.02 1015.00 1015.01 1015.06 1015.16 1015.27 1015.41 1015.53 1015.64 1015.73 1015.81 1015.89 1015.99 1016.13 1016.34 1016.61 1016.94 1017.33 1017.73 1018.13 1018.50 1018.84 1019.13 1019.37 1019.57 1019.75 1019.92 1020.09 1020.26 1020.43 1020.60 1020.75 1020.89 1021.01 1021.11 1021.19 1021.25 1021.29 1021.30 1021.26 1021.18
1016.05 1015.94 1015.82 1015.71 1015.59 1015.48 1015.36 1015.26 1015.17 1015.12 1015.13 1015.21 1015.34 1015.53 1015.75 1015.97 1016.16 1016.31 1016.41 1016.48 1016.55 1016.63 1016.77 1016.97 1017.24 1017.58 1017.95 1018.33 1018.69 1019.01 1019.26 1019.46 1019.60 1019.71 1019.82 1019.93 1020.05 1020.21 1020.37 1020.55 1020.73 1020.89 1021.04 1021.15 1021.24 1021.29 1021.29 1021.25 1021.16
1016.12 1016.04 1015.97 1015.89 1015.80 1015.69 1015.56 1015.42 1015.30 1015.23 1015.23 1015.33 1015.51 1015.76 1016.06 1016.36 1016.63 1016.84 1016.97 1017.04 1017.08 1017.12 1017.20 1017.35 1017.58 1017.88 1018.23 1018.61 1018.95 1019.25 1019.48 1019.63 1019.72 1019.77 1019.81 1019.86 1019.94 1020.07 1020.23 1020.41 1020.61 1020.79 1020.96 1021.09 1021.18 1021.24 1021.25 1021.21 1021.10
1016.12 1016.12 1016.11 1016.08 1016.01 1015.89 1015.74 1015.56 1015.40 1015.28 1015.27 1015.36 1015.57 1015.88 1016.25 1016.64 1016.98 1017.24 1017.42 1017.50 1017.54 1017.55 1017.60 1017.71 1017.91 1018.19 1018.54 1018.90 1019.24 1019.53 1019.73 1019.85 1019.89 1019.89 1019.87 1019.88 1019.91 1020.01 1020.14 1020.31 1020.50 1020.68 1020.83 1020.96 1021.04 1021.09 1021.10 1021.05 1020.96
1016.10 1016.19 1016.26 1016.27 1016.22 1016.09 1015.88 1015.64 1015.41 1015.24 1015.18 1015.26 1015.49 1015.84 1016.27 1016.73 1017.15 1017.48 1017.70 1017.82 1017.87 1017.88 1017.92 1018.01 1018.20 1018.47 1018.81 1019.17 1019.51 1019.79 1019.98 1020.08 1020.09 1020.05 1019.99 1019.95 1019.95 1020.00 1020.10 1020.24 1020.39 1020.53 1020.65 1020.74 1020.79 1020.82 1020.81 1020.78 1020.70
1016.11 1016.29 1016.43 1016.48 1016.42 1016.25 1015.98 1015.65 1015.32 1015.07 1014.95 1014.99 1015.22 1015.60 1016.09 1016.62 1017.11 1017.52 1017.81 1017.98 1018.06 1018.10 1018.14 1018.23 1018.41 1018.67 1019.00 1019.36 1019.69 1019.97 1020.16 1020.25 1020.25 1020.20 1020.12 1020.05 1020.02 1020.03 1020.08 1020.17 1020.26 1020.34 1020.40 1020.44 1020.44 1020.43 1020.41 1020.37 1020.31
1016.15 1016.43 1016.62 1016.69 1016.61 1016.37 1016.01 1015.57 1015.14 1014.78 1014.58 1014.58 1014.79 1015.19 1015.73 1016.32 1016.90 1017.39 1017.76 1018.00 1018.13 1018.20 1018.26 1018.36 1018.53 1018.79 1019.10 1019.45 1019.78 1020.05 1020.25 1020.34 1020.35 1020.30 1020.22 1020.14 1020.09 1020.06 1020.07 1020.10 1020.13 1020.13 1020.12 1020.08 1020.03 1019.97 1019.93 1019.89 1019.84
1016.24 1016.58 1016.80 1016.87 1016.75 1016.43 1015.97 1015.41 1014.86 1014.40 1014.12 1014.06 1014.25 1014.66 1015.23 1015.89 1016.54 1017.12 1017.58 1017.90 1018.10 1018.21 1018.30 1018.41 1018.58 1018.82 1019.11 1019.44 1019.76 1020.03 1020.23 1020.34 1020.37 1020.34 1020.28 1020.21 1020.14 1020.10 1020.06 1020.03 1019.99 1019.92 1019.83 1019.71 1019.60 1019.49 1019.41 1019.36 1019.32
1016.32 1016.69 1016.93 1016.98 1016.80 1016.41 1015.84 1015.18 1014.51 1013.95 1013.59 1013.48 1013.64 1014.05 1014.66 1015.37 1016.10 1016.77 1017.32 1017.72 1017.99 1018.17 1018.29 1018.41 1018.58 1018.80 1019.07 1019.37 1019.67 1019.94 1020.15 1020.28 1020.34 1020.34 1020.30 1020.24 1020.18 1020.12 1020.05 1019.96 1019.85 1019.71 1019.55 1019.37 1019.19 1019.04 1018.92 1018.85 1018.80
1016.32 1016.72 1016.95 1016.97 1016.74 1016.28 1015.63 1014.87 1014.12 1013.49 1013.06 1012.90 1013.04 1013.45 1014.08 1014.84 1015.64 1016.38 1017.02 1017.51 1017.86 1018.09 1018.26 1018.40 1018.56 1018.76 1019.01 1019.28 1019.57 1019.82 1020.03 1020.19 1020.27 1020.30 1020.29 1020.25 1020.19 1020.11 1020.01 1019.88 1019.72 1019.52 1019.29 1019.05 1018.82 1018.63 1018.48 1018.37 1018.31
1016.20 1016.60 1016.82 1016.80 1016.53 1016.02 1015.32 1014.51 1013.71 1013.03 1012.57 1012.38 1012.50 1012.91 1013.55 1014.34 1015.19 1016.00 1016.71 1017.29 1017.72 1018.02 1018.23 1018.40 1018.57 1018.76 1018.98 1019.23 1019.49 1019.74 1019.95 1020.11 1020.21 1020.26 1020.27 1020.24 1020.17 1020.08 1019.95 1019.77 1019.56 1019.32 1019.04 1018.77 1018.50 1018.27 1018.09 1017.96 1017.87
1015.90 1016.29 1016.49 1016.46 1016.17 1015.65 1014.93 1014.12 1013.31 1012.62 1012.15 1011.95 1012.06 1012.46 1013.11 1013.91 1014.79 1015.66 1016.43 1017.08 1017.59 1017.96 1018.23 1018.45 1018.63 1018.82 1019.03 1019.26 1019.49 1019.72 1019.92 1020.07 1020.18 1020.23 1020.24 1020.20 1020.12 1020.00 1019.83 1019.62 1019.37 1019.09 1018.79 1018.49 1018.20 1017.95 1017.74 1017.59 1017.46
1015.43 1015.80 1015.99 1015.95 1015.67 1015.16 1014.47 1013.70 1012.92 1012.27 1011.81 1011.63 1011.73 1012.13 1012.76 1013.57 1014.46 1015.36 1016.19 1016.90 1017.48 1017.93 1018.27 1018.53 1018.75 1018.95 1019.16 1019.37 1019.59 1019.79 1019.96 1020.09 1020.18 1020.21 1020.19 1020.12 1020.01 1019.85 1019.64 1019.40 1019.12 1018.81 1018.49 1018.18 1017.89 1017.63 1017.41 1017.23 1017.08
1014.85 1015.19 1015.36 1015.32 1015.05 1014.59 1013.97 1013.26 1012.56 1011.96 1011.56 1011.40 1011.51 1011.90 1012.52 1013.31 1014.21 1015.12 1015.98 1016.75 1017.39 1017.92 1018.33 1018.65 1018.91 1019.14 1019.35 1019.55 1019.74 1019.90 1020.04 1020.14 1020.18 1020.17 1020.11 1020.00 1019.83 1019.62 1019.37 1019.09 1018.79 1018.47 1018.14 1017.83 1017.54 1017.28 1017.05 1016.86 1016.68
Thickness
5744 5746 5748 5739 5718 5708 5710 5725 5735 5734 5738 5743 5745 5742 5738 5734 5726 5716 5736 5746 5744 5738 5731 5725 5721 5718 5714 5711 5708 5705 5703 5701 5699 5697 5695 5693 5692 5690 5689 5688 5687 5686 5686 5686 5685 5685 5685 5685 5685
5746 5751 5744 5729 5710 5699 5713 5731 5732 5735 5741 5746 5746 5744 5741 5740 5746 5738 5739 5744 5743 5736 5729 5724 5720 5716 5712 5709 5705 5702 5700 5697 5695 5693 5691 5689 5687 5686 5684 5683 5682 5681 5680 5680 5680 5679 5679 5679 5679
5747 5751 5734 5722 5711 5709 5718 5734 5737 5742 5746 5744 5743 5746 5743 5741 5748 5742 5741 5743 5741 5735 5728 5723 5718 5714 5710 5706 5703 5700 5697 5694 5692 5690 5687 5685 5683 5682 5680 5678 5677 5676 5675 5675 5674 5674 5674 5673 5673
5747 5739 5733 5720 5716 5729 5734 5738 5741 5740 5742 5744 5741 5740 5748 5751 5749 5744 5743 5742 5739 5733 5727 5721 5716 5711 5708 5704 5700 5697 5694 5691 5689 5686 5684 5682 5679 5677 5675 5673 5672 5671 5670 5670 5669 5669 5668 5668 5668
5744 5732 5719 5715 5723 5738 5745 5745 5742 5736 5738 5743 5741 5735 5737 5745 5748 5745 5743 5741 5737 5732 5727 5719 5714 5709 5705 5702 5698 5694 5691 5688 5685 5683 5680 5678 5676 5673 5671 5669 5668 5666 5666 5665 5664 5664 5663 5663 5663
5733 5730 5714 5711 5726 5739 5745 5748 5742 5737 5739 5743 5740 5734 5732 5741 5742 5741 5741 5739 5738 5732 5726 5717 5712 5707 5703 5699 5695 5691 5688 5685 5682 5680 5677 5675 5672 5670 5667 5666 5664 5662 5661 5660 5660 5659 5659 5659 5658
5726 5721 5715 5722 5728 5733 5742 5748 5740 5735 5735 5740 5743 5732 5730 5732 5737 5740 5739 5738 5736 5731 5724 5715 5709 5704 5700 5696 5692 5688 5685 5682 5679 5676 5674 5671 5669 5667 5664 5662 5660 5659 5657 5656 5655 5655 5654 5654 5654
5734 5723 5718 5722 5725 5729 5742 5743 5741 5735 5734 5745 5743 5729 5725 5728 5736 5737 5735 5734 5731 5727 5722 5715 5707 5702 5697 5693 5689 5685 5682 5679 5676 5673 5670 5668 5665 5663 5661 5659 5657 5655 5654 5652 5652 5651 5651 5650 5650
5734 5712 5708 5721 5724 5729 5740 5735 5739 5744 5738 5739 5743 5738 5732 5734 5734 5730 5727 5725 5724 5722 5719 5714 5707 5701 5695 5690 5686 5682 5679 5675 5672 5669 5666 5664 5661 5659 5658 5655 5653 5651 5650 5649 5648 5648 5647 5647 5646
5722 5703 5713 5729 5732 5730 5733 5731 5732 5731 5728 5730 5735 5736 5734 5732 5729 5725 5722 5719 5717 5715 5715 5713 5707 5700 5694 5689 5684 5679 5675 5672 5669 5666 5663 5660 5658 5656 5654 5652 5650 5648 5646 5645 5645 5644 5644 5643 5643
5721 5712 5722 5729 5732 5728 5724 5725 5730 5723 5716 5722 5721 5724 5728 5728 5727 5724 5723 5722 5719 5716 5712 5710 5705 5699 5693 5687 5682 5677 5673 5669 5665 5663 5660 5657 5654 5652 5650 5648 5646 5644 5642 5641 5641 5640 5640 5639 5640
5718 5719 5725 5726 5726 5721 5719 5721 5721 5721 5720 5727 5726 5725 5724 5723 5722 5722 5721 5722 5720 5715 5709 5706 5701 5696 5691 5685 5679 5674 5670 5666 5663 5659 5657 5654 5651 5648 5646 5644 5642 5640 5639 5638 5637 5636 5636 5636 5636
5712 5714 5723 5725 5722 5718 5716 5714 5715 5718 5725 5726 5724 5721 5720 5719 5719 5720 5721 5720 5716 5710 5705 5701 5697 5692 5687 5681 5676 5672 5667 5663 5660 5656 5653 5651 5647 5644 5642 5640 5638 5636 5635 5634 5633 5632 5631 5631 5631
5711 5712 5715 5718 5718 5718 5711 5711 5713 5717 5722 5719 5717 5714 5714 5713 5713 5713 5713 5712 5710 5706 5701 5696 5692 5687 5682 5677 5672 5668 5664 5660 5657 5653 5649 5646 5643 5640 5638 5635 5633 5632 5630 5629 5628 5627 5626 5626 5626
5707 5700 5704 5713 5715 5714 5708 5700 5709 5716 5716 5712 5710 5707 5706 5706 5706 5706 5707 5707 5705 5701 5696 5691 5687 5683 5677 5672 5668 5664 5660 5656 5653 5649 5645 5642 5639 5636 5633 5631 5629 5627 5625 5624 5623 5621 5620 5620 5620
5697 5690 5688 5710 5710 5706 5695 5687 5710 5713 5709 5705 5704 5701 5698 5698 5699 5699 5701 5700 5699 5695 5690 5685 5681 5677 5672 5668 5663 5659 5655 5652 5648 5644 5641 5637 5634 5631 5629 5626 5624 5622 5620 5618 5617 5615 5613 5613 5613
5685 5679 5686 5697 5706 5703 5692 5688 5700 5707 5704 5699 5698 5694 5692 5690 5690 5691 5692 5692 5690 5687 5682 5677 5673 5670 5666 5662 5657 5653 5649 5645 5642 5639 5635 5632 5629 5626 5623 5621 5618 5616 5614 5612 5610 5609 5607 5606 5605
5675 5680 5688 5690 5697 5696 5687 5687 5697 5701 5699 5695 5693 5689 5685 5682 5681 5683 5683 5682 5681 5678 5674 5669 5666 5662 5659 5654 5650 5645 5641 5638 5635 5631 5628 5625 5622 5620 5617 5614 5612 5610 5608 5605 5603 5602 5600 5599 5598
5678 5674 5672 5683 5692 5688 5682 5685 5693 5697 5693 5690 5687 5682 5677 5675 5676 5676 5675 5673 5671 5668 5665 5661 5657 5654 5650 5645 5641 5636 5632 5629 5627 5624 5621 5618 5616 5613 5610 5608 5605 5603 5600 5599 5597 5595 5593 5591 5590
5670 5663 5666 5678 5687 5682 5678 5682 5693 5694 5690 5689 5684 5678 5673 5669 5668 5668 5666 5664 5661 5659 5656 5653 5650 5646 5642 5638 5634 5630 5626 5623 5620 5618 5615 5612 5609 5607 5604 5601 5599 5596 5594 5592 5590 5587 5585 5583 5581
5661 5659 5662 5668 5677 5678 5670 5670 5683 5688 5689 5687 5684 5678 5672 5666 5662 5660 5657 5655 5652 5650 5648 5645 5641 5638 5634 5630 5626 5622 5619 5615 5612 5609 5607 5605 5603 5601 5598 5595 5593 5590 5587 5585 5583 5580 5577 5574 5572
5652 5668 5669 5665 5656 5656 5663 5650 5675 5676 5674 5675 5675 5671 5667 5663 5659 5655 5651 5647 5644 5642 5640 5637 5633 5630 5626 5623 5618 5614 5609 5605 5604 5602 5600 5599 5597 5594 5592 5589 5586 5583 5580 5578 5575 5573 5570 5566 5562
5659 5662 5661 5658 5650 5646 5658 5650 5668 5672 5664 5665 5667 5667 5663 5659 5655 5650 5646 5642 5638 5635 5632 5629 5625 5621 5617 5614 5610 5605 5601 5598 5596 5594 5592 5590 5589 5587 5584 5581 5578 5575 5572 5569 5567 5564 5560 5557 5553
5657 5653 5651 5648 5640 5632 5657 5650 5661 5668 5671 5667 5666 5664 5660 5656 5650 5645 5641 5636 5631 5628 5625 5621 5617 5613 5609 5605 5602 5597 5593 5589 5587 5584 5582 5580 5579 5577 5575 5573 5569 5566 5563 5560 5557 5554 5550 5546 5542
5645 5635 5627 5623 5619 5632 5669 5661 5667 5684 5685 5677 5669 5663 5658 5652 5645 5639 5634 5629 5624 5620 5617 5614 5610 5605 5601 5597 5593 5589 5585 5582 5578 5575 5573 5570 5568 5566 5565 5562 5559 5556 5553 5550 5547 5543 5539 5535 5531
5635 5636 5626 5625 5632 5645 5650 5652 5669 5681 5682 5681 5673 5664 5655 5648 5642 5635 5630 5624 5619 5614 5610 5606 5602 5597 5593 5588 5584 5581 5578 5573 5570 5567 5564 5561 5559 5557 5555 5552 5549 5546 5543 5540 5536 5532 5528 5524 5519
5637 5633 5645 5633 5636 5635 5648 5662 5659 5672 5669 5670 5666 5659 5651 5644 5638 5632 5626 5620 5614 5608 5604 5599 5594 5589 5585 5580 5576 5572 5568 5565 5561 5558 5555 5552 5550 5548 5545 5542 5539 5536 5532 5528 5524 5520 5516 5511 5507
5638 5642 5633 5624 5618 5619 5647 5656 5653 5653 5655 5658 5657 5652 5647 5641 5634 5627 5621 5614 5608 5602 5596 5592 5586 5581 5576 5571 5567 5563 5559 5555 5552 5549 5545 5543 5540 5537 5534 5531 5527 5524 5520 5515 5511 5506 5502 5497 5492
5629 5631 5633 5631 5634 5621 5625 5643 5663 5660 5658 5652 5651 5649 5643 5636 5629 5622 5614 5607 5600 5594 5588 5582 5577 5572 5566 5561 5557 5553 5549 5546 5542 5538 5535 5532 5529 5526 5522 5518 5514 5510 5506 5502 5496 5491 5486 5480 5475
5636 5634 5631 5621 5626 5629 5620 5633 5660 5661 5659 5653 5648 5644 5639 5632 5624 5616 5607 5599 5592 5585 5579 5573 5568 5562 5557 5552 5547 5543 5539 5535 5531 5527 5524 5521 5517 5513 5509 5505 5501 5496 5492 5486 5480 5475 5469 5462 5456